TimeMST,TemperatureF,Dew PointF,Humidity,Sea Level PressureIn,VisibilityMPH,Wind Direction,Wind SpeedMPH,Gust SpeedMPH,PrecipitationIn,Events,Conditions,WindDirDegrees,DateUTC
12:15 AM,33.8,28.4,81,30.17,10.0,SE,3.5,-,N/A,,Clear,140,2014-02-13 07:15:00
12:35 AM,33.8,28.4,81,30.17,10.0,ESE,4.6,-,N/A,,Clear,110,2014-02-13 07:35:00
12:55 AM,32.0,28.4,87,30.17,10.0,NNE,3.5,-,N/A,,Clear,20,2014-02-13 07:55:00
1:15 AM,33.8,28.4,81,30.17,10.0,Calm,Calm,-,N/A,,Clear,0,2014-02-13 08:15:00
1:35 AM,33.8,28.4,81,30.17,10.0,East,4.6,-,N/A,,Mostly Cloudy,100,2014-02-13 08:35:00
1:55 AM,32.0,28.4,87,30.17,10.0,SE,3.5,-,N/A,,Mostly Cloudy,130,2014-02-13 08:55:00
2:15 AM,32.0,28.4,87,30.17,10.0,East,3.5,-,N/A,,Scattered Clouds,100,2014-02-13 09:15:00
2:35 AM,32.0,28.4,87,30.17,10.0,East,5.8,-,N/A,,Clear,90,2014-02-13 09:35:00
2:55 AM,32.0,28.4,87,30.17,10.0,East,5.8,-,N/A,,Clear,100,2014-02-13 09:55:00
3:15 AM,32.0,28.4,87,30.16,10.0,ESE,4.6,-,N/A,,Clear,120,2014-02-13 10:15:00
3:35 AM,32.0,28.4,87,30.16,10.0,SE,5.8,-,N/A,,Scattered Clouds,130,2014-02-13 10:35:00
3:55 AM,32.0,28.4,87,30.16,10.0,SE,3.5,-,N/A,,Mostly Cloudy,130,2014-02-13 10:55:00
4:15 AM,32.0,28.4,87,30.16,10.0,ESE,3.5,-,N/A,,Overcast,120,2014-02-13 11:15:00
4:35 AM,32.0,28.4,87,30.15,10.0,SE,4.6,-,N/A,,Overcast,130,2014-02-13 11:35:00
4:55 AM,32.0,28.4,87,30.16,10.0,East,3.5,-,N/A,,Mostly Cloudy,100,2014-02-13 11:55:00
5:15 AM,32.0,28.4,87,30.16,10.0,Calm,Calm,-,N/A,,Scattered Clouds,0,2014-02-13 12:15:00
5:35 AM,32.0,28.4,87,30.16,10.0,Calm,Calm,-,N/A,,Mostly Cloudy,0,2014-02-13 12:35:00
5:55 AM,32.0,28.4,87,30.16,10.0,SSE,3.5,-,N/A,,Overcast,160,2014-02-13 12:55:00
6:15 AM,32.0,28.4,87,30.16,10.0,Calm,Calm,-,N/A,,Scattered Clouds,0,2014-02-13 13:15:00
6:35 AM,32.0,28.4,87,30.18,10.0,Calm,Calm,-,N/A,,Clear,0,2014-02-13 13:35:00
6:55 AM,32.0,28.4,87,30.18,10.0,Calm,Calm,-,N/A,,Mostly Cloudy,0,2014-02-13 13:55:00
7:15 AM,32.0,28.4,87,30.18,10.0,SE,3.5,-,N/A,,Overcast,130,2014-02-13 14:15:00
7:35 AM,32.0,30.2,93,30.18,10.0,East,4.6,-,N/A,,Overcast,80,2014-02-13 14:35:00
7:55 AM,32.0,30.2,93,30.19,10.0,Calm,Calm,-,N/A,,Overcast,0,2014-02-13 14:55:00
8:15 AM,32.0,30.2,93,30.19,10.0,ESE,5.8,-,N/A,,Mostly Cloudy,110,2014-02-13 15:15:00
8:35 AM,35.6,30.2,81,30.18,10.0,ESE,4.6,-,N/A,,Scattered Clouds,120,2014-02-13 15:35:00
8:55 AM,37.4,30.2,75,30.19,10.0,Calm,Calm,-,N/A,,Clear,0,2014-02-13 15:55:00
9:15 AM,41.0,30.2,65,30.19,10.0,North,-9999.0,-,N/A,,Mostly Cloudy,0,2014-02-13 16:15:00
9:35 AM,37.4,30.2,75,30.19,10.0,Calm,Calm,-,N/A,,Mostly Cloudy,0,2014-02-13 16:35:00
9:55 AM,41.0,28.4,61,30.19,10.0,Calm,Calm,-,N/A,,Scattered Clouds,0,2014-02-13 16:55:00
10:15 AM,42.8,28.4,57,30.19,10.0,Calm,Calm,-,N/A,,Mostly Cloudy,0,2014-02-13 17:15:00
10:35 AM,42.8,30.2,61,30.18,10.0,Calm,Calm,-,N/A,,Mostly Cloudy,0,2014-02-13 17:35:00
10:55 AM,44.6,32.0,61,30.19,10.0,WNW,3.5,-,N/A,,Scattered Clouds,290,2014-02-13 17:55:00
11:15 AM,46.4,30.2,53,30.18,10.0,Calm,Calm,-,N/A,,Scattered Clouds,0,2014-02-13 18:15:00
11:35 AM,48.2,30.2,50,30.17,10.0,North,4.6,-,N/A,,Clear,350,2014-02-13 18:35:00
11:55 AM,50.0,30.2,47,30.16,10.0,Calm,Calm,-,N/A,,Clear,0,2014-02-13 18:55:00
12:35 PM,53.6,28.4,38,30.12,10.0,Calm,Calm,-,N/A,,Scattered Clouds,0,2014-02-13 19:35:00
12:55 PM,53.6,30.2,41,30.11,10.0,Calm,Calm,-,N/A,,Clear,0,2014-02-13 19:55:00
1:15 PM,53.6,28.4,38,30.11,10.0,SW,5.8,-,N/A,,Clear,220,2014-02-13 20:15:00
1:35 PM,55.4,30.2,38,30.10,10.0,West,5.8,-,N/A,,Clear,280,2014-02-13 20:35:00
1:55 PM,55.4,30.2,38,30.08,10.0,West,8.1,-,N/A,,Clear,260,2014-02-13 20:55:00
2:15 PM,57.2,30.2,36,30.08,10.0,West,15.0,-,N/A,,Clear,260,2014-02-13 21:15:00
2:35 PM,57.2,30.2,36,30.07,10.0,West,10.4,-,N/A,,Clear,270,2014-02-13 21:35:00
2:55 PM,55.4,30.2,38,30.06,10.0,WSW,20.7,25.3,N/A,,Clear,250,2014-02-13 21:55:00
3:15 PM,55.4,30.2,38,30.08,10.0,West,18.4,24.2,N/A,,Clear,260,2014-02-13 22:15:00
3:35 PM,55.4,32.0,41,30.08,10.0,West,12.7,20.7,N/A,,Mostly Cloudy,280,2014-02-13 22:35:00
3:55 PM,55.4,30.2,38,30.08,10.0,West,15.0,19.6,N/A,,Scattered Clouds,260,2014-02-13 22:55:00
4:15 PM,53.6,30.2,41,30.08,10.0,West,12.7,18.4,N/A,,Mostly Cloudy,270,2014-02-13 23:15:00
4:35 PM,53.6,30.2,41,30.09,10.0,West,9.2,17.3,N/A,,Overcast,270,2014-02-13 23:35:00
4:55 PM,53.6,30.2,41,30.08,10.0,West,8.1,-,N/A,,Overcast,260,2014-02-13 23:55:00
5:15 PM,53.6,30.2,41,30.08,10.0,West,8.1,-,N/A,,Mostly Cloudy,260,2014-02-14 00:15:00
5:35 PM,51.8,30.2,44,30.08,10.0,West,6.9,-,N/A,,Scattered Clouds,260,2014-02-14 00:35:00
5:55 PM,50.0,30.2,47,30.08,10.0,WNW,4.6,-,N/A,,Mostly Cloudy,290,2014-02-14 00:55:00
6:15 PM,50.0,30.2,47,30.10,10.0,West,4.6,-,N/A,,Mostly Cloudy,280,2014-02-14 01:15:00
6:55 PM,48.2,30.2,50,30.09,10.0,WSW,3.5,-,N/A,,Mostly Cloudy,250,2014-02-14 01:55:00
7:15 PM,50.0,28.4,43,30.09,10.0,Calm,Calm,-,N/A,,Scattered Clouds,0,2014-02-14 02:15:00
7:35 PM,46.4,30.2,53,30.08,10.0,SE,4.6,-,N/A,,Mostly Cloudy,130,2014-02-14 02:35:00
7:55 PM,42.8,32.0,66,30.07,10.0,ESE,6.9,-,N/A,,Scattered Clouds,110,2014-02-14 02:55:00
8:15 PM,42.8,32.0,66,30.08,10.0,East,5.8,-,N/A,,Clear,100,2014-02-14 03:15:00
8:35 PM,42.8,30.2,61,30.09,10.0,East,4.6,-,N/A,,Clear,100,2014-02-14 03:35:00
8:55 PM,41.0,30.2,65,30.10,10.0,East,4.6,-,N/A,,Clear,90,2014-02-14 03:55:00
9:15 PM,42.8,30.2,61,30.11,10.0,SE,3.5,-,N/A,,Clear,140,2014-02-14 04:15:00
9:35 PM,41.0,32.0,70,30.10,10.0,SE,4.6,-,N/A,,Clear,140,2014-02-14 04:35:00
9:55 PM,41.0,32.0,70,30.11,10.0,East,6.9,-,N/A,,Clear,80,2014-02-14 04:55:00
10:15 PM,42.8,30.2,61,30.11,10.0,ENE,9.2,-,N/A,,Clear,70,2014-02-14 05:15:00
10:35 PM,41.0,30.2,65,30.11,10.0,East,8.1,-,N/A,,Clear,90,2014-02-14 05:35:00
10:55 PM,41.0,30.2,65,30.11,10.0,East,10.4,-,N/A,,Clear,90,2014-02-14 05:55:00
11:15 PM,41.0,30.2,65,30.11,10.0,ESE,9.2,-,N/A,,Clear,110,2014-02-14 06:15:00
11:35 PM,37.4,30.2,75,30.11,10.0,East,10.4,-,N/A,,Clear,90,2014-02-14 06:35:00
11:55 PM,39.2,30.2,70,30.11,10.0,East,6.9,-,N/A,,Clear,100,2014-02-14 06:55:00